星链-30137 (STARLINK-30137 )

导读

STARLINK-30137是美国SpaceX星链互联网星座计划中的一颗卫星,于2023年6月4日发射,旨在为全球提供低延迟、高速率的宽带互联网覆盖,尤其服务偏远地区。作为星链组网的批量卫星之一,它工作于近地轨道,依托大规模星座部署,支撑全球卫星通信网络运行,服务民用与商业互联需求。

Basic Information
目录编号:
56843
目录名称:
STARLINK-30137
国际标识:
2023-079W
轨道中心:
EARTH
卫星名称:
星链-30137
卫星全名:
星链-30137 (STARLINK-30137 )
卫星状态:
在轨 (已飞行1195 天)
发射日期:
2023-06-04 UTC
国别 :
美国 (US)
星等 :
--
This satellite is enrolled in the Space Conjunction Data Service (SCDS) and the current flight risk assessment level is: High Risk
Orbit Information
数据来源 国际轨道数据 AOE轨道数据
星历时间 2026-09-11T10:01:59+0800
13小时前
查看轨道信息
2026-09-09T21:00:00+0800
2天前
查看轨道信息
半长轴 6861.173km 6861.081km
偏心率 0.0001834 0.0001818
轨道倾角 43.003° 43.002°
近地点辐角 266.807° 253.973°
升交点赤经 139.803° 148.519°
平近点角 93.257° 250.589°
近地点 481.777km 481.696km
远地点 484.295km 484.192km
周期 94.266分钟 94.265分钟
每日圈数 15.275844 15.276152
Detailed Information
固有亮度:
5
最大亮度:
0.5
卫星平台:
Starlink v2.0 mini
覆盖范围:
全球
运营商:
太空探索技术公司
运营商所在国:
美国
制造商(研发单位):
太空探索技术公司
制造商所在国:
美国
使用方式:
暂无
Satellite Introduction
星链(Starlink)计划是由太空探索技术公司(SpaceX)提出的一个巨型低轨卫星互联网星座项目,计划在2019年至2024年间在太空搭建由约1.2万颗卫星组成的“星链”网络,其中1584颗将部署在地球上空550千米处的近地轨道,并从2020年开始工作。该卫星仍在工作。
2D Orbit Map
3D Orbit Map
Orbit Altitude Analysis Chart
Orbit Inclination Analysis Chart
Orbit Comprehensive Analysis Chart
View Comprehensive Chart
Conjunction Data List
Event ID Objects TCA Miss Dist (km) Collision Risk Probability Collision Risk Index (CRI) Action
CDM_260913-022705-684306-747121
2026-09-13T
02:27:52+0000
0.528 km
远距离
1.233503E-4 高风险 0.77
CDM_260913-195404-431005-684321
OBJECT A (44310)
2026-09-13T
19:54:10+0000
0.817 km
远距离
4.214807E-5 中风险 0.67
CDM_260913-154805-684306-747121
2026-09-13T
15:48:10+0000
0.789 km
远距离
3.865714E-5 中风险 0.67
CDM_260913-040205-684306-747121
2026-09-13T
04:02:01+0000
1.524 km
极远距离
4.170406E-6 低风险 0.47
CDM_260913-172205-684306-747121
2026-09-13T
17:22:19+0000
1.994 km
极远距离
1.94739E-6 低风险 0.41
CDM_260913-005305-684306-747121
2026-09-13T
00:53:42+0000
2.517 km
极远距离
1.19985E-6 低风险 0.37
CDM_260913-184305-684306-217821
2026-09-13T
18:43:00+0000
2.774 km
极远距离
1.118451E-6 低风险 0.36
Miss Distance Evolution Trend with All Objects
Collision Probability Evolution Trend with All Objects